Regional Weather Roundup
Issued by NWS

Home | Current Version | Previous Version | Graphics & Text | Print | Product List | Glossary On
Versions: 1 2 3 4 5 6 7 8 9 10 11 12 13 14 15 16 17 18 19 20 21 22 23 24 25 26 27 28 29 30 31 32 33 34 35 36 37 38 39 40 41 42 43 44 45 46 47 48 49 50
000
ASUS43 KFSD 250110
RWRSD

WEATHER ROUNDUP FOR SOUTH DAKOTA
NATIONAL WEATHER SERVICE SIOUX FALLS SD
800 PM CDT TUE MAY 24 2016

NOTE: "FAIR" INDICATES FEW OR NO CLOUDS BELOW 12,000 FEET WITH NO
SIGNIFICANT WEATHER AND/OR OBSTRUCTIONS TO VISIBILITY.


SDZ001>005-009-010-012>017-250200-
NORTHWEST AND NORTH CENTRAL SOUTH DAKOTA

CITY           SKY/WX    TMP DP  RH WIND       PRES   REMARKS
BUFFALO          N/A     71  43  36 SE16      29.75S
FAITH            N/A     68  46  45 E6        29.83R
MOBRIDGE       CLOUDY    75  56  51 E5        29.79F
$$

SDZ012>016-024>037-041>051-057-063-072>074-250200-
SOUTHWEST AND SOUTH CENTRAL SOUTH DAKOTA

CITY           SKY/WX    TMP DP  RH WIND       PRES   REMARKS
RAPID CTY ARPT RAIN      55  52  89 E13       29.90F
PIERRE         MOSUNNY   70  53  54 E7        29.77F
CUSTER         CLOUDY    50  43  77 E8        29.89F
PHILIP         LGT RAIN  62  53  72 VRB6      29.82R
PINE RIDGE     CLOUDY    55  45  68 NW25G39   29.82R THUNDER
WINNER         FAIR      77  55  46 E12       29.77F
$$

SDZ004>011-016>023-039-040-250200-
NORTHEAST SOUTH DAKOTA

CITY           SKY/WX    TMP DP  RH WIND       PRES   REMARKS
ABERDEEN       CLEAR     81  46  29 N6        29.81F
WATERTOWN      CLEAR     82  43  25 CALM      29.84F
BROOKINGS      CLEAR     83  41  22 CALM      29.84F
SISSETON         N/A     83  43  24 CALM      29.81F
$$

SDZ017-020-022-023-036>040-048>070-250200-
SOUTHEAST SOUTH DAKOTA

CITY           SKY/WX    TMP DP  RH WIND       PRES   REMARKS
SIOUX FALLS    PTCLDY    75  53  46 E7        29.83F
HURON          CLEAR     78  53  41 E7        29.80F
CHAMBERLAIN    CLEAR     79  58  47 E6        29.78F
MITCHELL       CLEAR     78  58  49 E6        29.81F
YANKTON        CLEAR     79  61  53 SE14      29.81R
$$

ABBREVIATIONS USED IN REMARKS
   TC - TEMPERATURE IN CELSIUS
  WCI - WIND CHILL INDEX
   HX - HEAT INDEX
  VSB - VISIBILITY




USA.gov is the U.S. government's official web portal to all federal, state and local government web resources and services.